Location: ??
(35.5653°N, 139.6194°E)
Time: 12:46:31
(UTC+00:00)

Cosmos 1459 Rocket - Pass Details

Date: 20 November 2019
Orbit: 938 x 999 km, 83.0° (Epoch: 12 December)

Event Time Altitude Azimuth Distance (km) Brightness Sun altitude
Rises 19:14:05 0° 186° (S) 3,622 7.0 -25.9°
Reaches altitude 10° 19:16:33 10° 187° (S) 2,688 6.3 -25.4°
Maximum altitude 19:22:43 84° 275° (W) 983 3.9 -24.1°
Drops below altitude 10° 19:29:02 10° 5° (N) 2,747 6.3 -22.9°
Sets 19:31:35 0° 6° (N) 3,706 7.0 -22.4°
